When you browse on this site, cookies collect data to enhance your experience and personalize the content and advertising you see.
Visit our Privacy Policy to learn more. By continuing to use the site, you agree to this use of cookies and data.
  • In Portugal
  • List of Countries
  • For 7 days
  • Water Temperature
  • Satellite Maps
  • Weather Map
  • Weather Widgets
  • user-avatar
    Login

    Hourly Weather Varna

    Today, 18 April, Thursday

    Time Temperature Precipitation Wind Pressure Humidity
    00:00 +5°C° 0 mm 2 mps 750 mmHg 90%
    01:00 +5°C° 0 mm 2 mps 750 mmHg 90%
    02:00 +5°C° 0 mm 2 mps 750 mmHg 90%
    03:00 +4°C° 0 mm 3 mps 750 mmHg 90%
    04:00 +4°C° 0 mm 3 mps 750 mmHg 90%
    05:00 +4°C° 0 mm 3 mps 750 mmHg 90%
    06:00 +5°C° 0 mm 3 mps 751 mmHg 86%
    07:00 +7°C° 0 mm 3 mps 751 mmHg 83%
    08:00 +7°C° 0 mm 4 mps 751 mmHg 79%
    09:00 +7°C° 0.1 mm 4 mps 751 mmHg 81%
    10:00 +7°C° 0.1 mm 4 mps 751 mmHg 84%
    11:00 +8°C° 0.1 mm 5 mps 752 mmHg 86%
    12:00 +8°C° 0.2 mm 5 mps 752 mmHg 85%
    13:00 +8°C° 0.2 mm 6 mps 752 mmHg 83%
    14:00 +6°C° 0.2 mm 7 mps 752 mmHg 82%
    15:00 +8°C° 0.1 mm 6 mps 752 mmHg 78%
    16:00 +8°C° 0.1 mm 6 mps 752 mmHg 75%
    17:00 +8°C° 0.1 mm 6 mps 752 mmHg 72%
    18:00 +7°C° 0 mm 5 mps 752 mmHg 74%
    19:00 +6°C° 0 mm 5 mps 752 mmHg 76%
    20:00 +6°C° 0 mm 4 mps 752 mmHg 78%
    21:00 +5°C° 0 mm 4 mps 752 mmHg 79%
    22:00 +4°C° 0 mm 4 mps 753 mmHg 79%
    23:00 +4°C° 0 mm 3 mps 753 mmHg 80%

    Tomorrow, 19 April, Friday

    Time Temperature Precipitation Wind Pressure Humidity
    00:00 +3°C° 0 mm 3 mps 753 mmHg 82%
    01:00 +3°C° 0 mm 3 mps 753 mmHg 83%
    02:00 +3°C° 0 mm 3 mps 753 mmHg 85%
    03:00 +3°C° 0 mm 4 mps 752 mmHg 86%
    04:00 +3°C° 0 mm 4 mps 752 mmHg 87%
    05:00 +3°C° 0 mm 4 mps 752 mmHg 88%
    06:00 +4°C° 0 mm 4 mps 752 mmHg 83%
    07:00 +6°C° 0 mm 5 mps 752 mmHg 77%
    08:00 +8°C° 0 mm 5 mps 752 mmHg 72%
    09:00 +9°C° 0 mm 5 mps 752 mmHg 66%
    10:00 +11°C° 0 mm 4 mps 752 mmHg 61%
    11:00 +13°C° 0 mm 4 mps 752 mmHg 55%
    12:00 +12°C° 0.3 mm 3 mps 751 mmHg 60%
    13:00 +12°C° 0.3 mm 3 mps 751 mmHg 65%
    14:00 +11°C° 0.3 mm 3 mps 751 mmHg 70%
    15:00 +10°C° 0.7 mm 3 mps 751 mmHg 75%
    16:00 +9°C° 0.7 mm 2 mps 751 mmHg 79%
    17:00 +8°C° 0.7 mm 2 mps 750 mmHg 84%
    18:00 +8°C° 0.1 mm 2 mps 751 mmHg 85%
    19:00 +7°C° 0.1 mm 2 mps 751 mmHg 86%
    20:00 +6°C° 0.1 mm 2 mps 751 mmHg 87%
    21:00 +5°C° 0.3 mm 3 mps 752 mmHg 87%
    22:00 +5°C° 0.3 mm 3 mps 752 mmHg 86%
    23:00 +5°C° 0.3 mm 3 mps 753 mmHg 85%

    Day after tomorrow, 20 April, Saturday

    Time Temperature Precipitation Wind Pressure Humidity
    00:00 +5°C° 0 mm 4 mps 753 mmHg 85%
    01:00 +4°C° 0 mm 4 mps 753 mmHg 84%
    02:00 +4°C° 0 mm 4 mps 753 mmHg 84%
    03:00 +4°C° 0 mm 4 mps 753 mmHg 84%
    04:00 +3°C° 0 mm 4 mps 753 mmHg 84%
    05:00 +1°C° 0 mm 4 mps 753 mmHg 84%
    06:00 +3°C° 0 mm 5 mps 753 mmHg 80%
    07:00 +5°C° 0 mm 5 mps 753 mmHg 77%
    08:00 +6°C° 0 mm 5 mps 754 mmHg 73%
    09:00 +7°C° 0.2 mm 6 mps 754 mmHg 68%
    10:00 +8°C° 0.2 mm 6 mps 754 mmHg 62%
    11:00 +9°C° 0.2 mm 6 mps 754 mmHg 57%
    12:00 +9°C° 0.1 mm 6 mps 754 mmHg 54%
    13:00 +10°C° 0.1 mm 6 mps 754 mmHg 52%
    14:00 +10°C° 0.1 mm 6 mps 754 mmHg 50%
    15:00 +10°C° 0 mm 6 mps 754 mmHg 52%
    16:00 +9°C° 0 mm 5 mps 754 mmHg 55%
    17:00 +9°C° 0 mm 5 mps 754 mmHg 57%
    18:00 +8°C° 0 mm 4 mps 754 mmHg 61%
    19:00 +7°C° 0 mm 3 mps 754 mmHg 66%
    20:00 +5°C° 0 mm 3 mps 754 mmHg 70%
    21:00 +5°C° 0 mm 2 mps 754 mmHg 70%
    22:00 +5°C° 0 mm 2 mps 754 mmHg 70%
    23:00 +4°C° 0 mm 2 mps 754 mmHg 69%

    21 April, Sunday

    Time Temperature Precipitation Wind Pressure Humidity
    00:00 +4°C° 0 mm 2 mps 754 mmHg 71%
    01:00 +3°C° 0 mm 3 mps 754 mmHg 72%
    02:00 +3°C° 0 mm 3 mps 753 mmHg 73%
    03:00 +3°C° 0 mm 3 mps 753 mmHg 73%
    04:00 +3°C° 0 mm 3 mps 753 mmHg 74%
    05:00 +3°C° 0 mm 3 mps 753 mmHg 74%
    06:00 +4°C° 0 mm 3 mps 753 mmHg 70%
    07:00 +7°C° 0 mm 3 mps 753 mmHg 67%
    08:00 +9°C° 0 mm 3 mps 754 mmHg 63%
    09:00 +10°C° 0 mm 2 mps 753 mmHg 58%
    10:00 +12°C° 0 mm 2 mps 753 mmHg 53%
    11:00 +14°C° 0 mm 1 mps 753 mmHg 48%
    12:00 +14°C° 0 mm 2 mps 753 mmHg 49%
    13:00 +13°C° 0 mm 3 mps 753 mmHg 50%
    14:00 +13°C° 0 mm 3 mps 753 mmHg 51%
    15:00 +12°C° 0 mm 4 mps 752 mmHg 53%
    16:00 +12°C° 0 mm 4 mps 752 mmHg 56%
    17:00 +11°C° 0 mm 4 mps 752 mmHg 59%
    18:00 +10°C° 0 mm 3 mps 752 mmHg 63%
    19:00 +9°C° 0 mm 3 mps 752 mmHg 66%
    20:00 +8°C° 0 mm 2 mps 752 mmHg 69%
    21:00 +7°C° 0 mm 2 mps 752 mmHg 71%
    22:00 +7°C° 0 mm 2 mps 752 mmHg 73%
    23:00 +6°C° 0 mm 2 mps 752 mmHg 74%

    22 April, Monday

    Time Temperature Precipitation Wind Pressure Humidity
    00:00 +7°C° 0 mm 1 mps 752 mmHg 76%
    01:00 +7°C° 0 mm 1 mps 752 mmHg 77%
    02:00 +6°C° 0 mm 1 mps 752 mmHg 79%
    03:00 +6°C° 0 mm 1 mps 752 mmHg 78%
    04:00 +6°C° 0 mm 1 mps 752 mmHg 77%
    05:00 +6°C° 0 mm 1 mps 752 mmHg 76%
    06:00 +7°C° 0 mm 2 mps 752 mmHg 73%
    07:00 +8°C° 0 mm 3 mps 753 mmHg 71%
    08:00 +10°C° 0 mm 3 mps 753 mmHg 68%
    09:00 +10°C° 0 mm 4 mps 753 mmHg 65%
    10:00 +11°C° 0 mm 4 mps 753 mmHg 62%
    11:00 +12°C° 0 mm 4 mps 753 mmHg 59%
    12:00 +12°C° 0 mm 4 mps 753 mmHg 57%
    13:00 +12°C° 0 mm 4 mps 753 mmHg 55%
    14:00 +12°C° 0 mm 4 mps 753 mmHg 54%
    15:00 +12°C° 0 mm 4 mps 753 mmHg 55%
    16:00 +11°C° 0 mm 4 mps 753 mmHg 56%
    17:00 +11°C° 0 mm 4 mps 753 mmHg 57%
    18:00 +8°C° 0 mm 4 mps 753 mmHg 63%
    19:00 +8°C° 0 mm 3 mps 753 mmHg 69%
    20:00 +7°C° 0 mm 3 mps 754 mmHg 74%
    21:00 +5°C° 0 mm 3 mps 754 mmHg 77%
    22:00 +6°C° 0 mm 2 mps 754 mmHg 79%
    23:00 +6°C° 0 mm 2 mps 754 mmHg 82%

    23 April, Tuesday

    Time Temperature Precipitation Wind Pressure Humidity
    00:00 +6°C° 0 mm 2 mps 754 mmHg 83%
    01:00 +5°C° 0 mm 2 mps 754 mmHg 85%
    02:00 +5°C° 0 mm 2 mps 754 mmHg 86%
    03:00 +5°C° 0 mm 2 mps 754 mmHg 87%
    04:00 +5°C° 0 mm 2 mps 754 mmHg 87%
    05:00 +5°C° 0 mm 2 mps 754 mmHg 87%
    06:00 +7°C° 0 mm 3 mps 754 mmHg 82%
    07:00 +8°C° 0 mm 3 mps 754 mmHg 77%
    08:00 +10°C° 0 mm 4 mps 755 mmHg 71%
    09:00 +10°C° 0 mm 4 mps 755 mmHg 69%
    10:00 +10°C° 0 mm 5 mps 755 mmHg 66%
    11:00 +10°C° 0 mm 5 mps 755 mmHg 64%
    12:00 +12°C° 0 mm 5 mps 754 mmHg 63%
    13:00 +12°C° 0 mm 5 mps 754 mmHg 61%
    14:00 +11°C° 0 mm 6 mps 754 mmHg 60%
    15:00 +11°C° 0 mm 6 mps 754 mmHg 62%
    16:00 +10°C° 0 mm 6 mps 753 mmHg 64%
    17:00 +10°C° 0 mm 6 mps 753 mmHg 66%
    18:00 +9°C° 0 mm 5 mps 753 mmHg 73%
    19:00 +8°C° 0 mm 5 mps 753 mmHg 79%
    20:00 +7°C° 0 mm 4 mps 753 mmHg 86%
    21:00 +7°C° 0 mm 4 mps 753 mmHg 89%
    22:00 +7°C° 0 mm 4 mps 753 mmHg 92%
    23:00 +7°C° 0 mm 4 mps 753 mmHg 96%
    Show more